Regional Weather Roundup
Issued by NWS

Home | Current Version | Previous Version | Graphics & Text | Print | Product List | Glossary On
Versions: 1 2 3 4 5 6 7 8 9 10 11 12 13 14 15 16 17 18 19 20 21 22 23 24 25 26 27 28 29 30 31 32 33 34 35 36 37 38 39 40 41 42 43 44 45 46 47 48 49 50
211
ASUS43 KBIS 311902
RWRND

NORTH DAKOTA REGIONAL WEATHER ROUNDUP
NATIONAL WEATHER SERVICE BISMARCK ND
200 PM CDT TUE MAY 31 2016

NOTE: "FAIR" INDICATES FEW OR NO CLOUDS BELOW 12,000 FEET WITH NO
SIGNIFICANT WEATHER AND/OR OBSTRUCTIONS TO VISIBILITY.


NDZ001>003-009>011-017-312000-
NORTHWEST NORTH DAKOTA

CITY           SKY/WX    TMP DP  RH WIND       PRES   REMARKS
WILLISTON      RAIN      54  50  86 N29G37    29.81R FOG
MINOT          PTSUNNY   68  48  48 S10G17    29.61R
$$

NDZ018>021-031>035-040>046-312000-
SOUTHWEST NORTH DAKOTA

CITY           SKY/WX    TMP DP  RH WIND       PRES   REMARKS
BISMARCK       LGT RAIN  58  51  78 W17       29.67F
DICKINSON      LGT RAIN  50  48  93 NW31G40   29.69R
GARRISON         N/A     57  50  77 W10       29.62F
HETTINGER ARPT LGT RAIN  53  50  89 W30G43    29.78R
$$

NDZ004>008-012>016-024-026-027-054-312000-
NORTHEAST NORTH DAKOTA

CITY           SKY/WX    TMP DP  RH WIND       PRES   REMARKS
GRAND FORKS    PTSUNNY   66  53  63 SW20G28   29.69S
GRND FRKS AFB  MOSUNNY   66  52  60 W16       29.69S
DEVILS LAKE    CLOUDY    60  52  74 SW12      29.67F
$$

NDZ022-023-025-028>030-036>039-047>053-312000-
SOUTHEAST NORTH DAKOTA

CITY           SKY/WX    TMP DP  RH WIND       PRES   REMARKS
FARGO          CLOUDY    66  47  50 SW21G26   29.75S
JAMESTOWN      MOSUNNY   65  46  50 SW21G31   29.70F
$$





USA.gov is the U.S. government's official web portal to all federal, state and local government web resources and services.